Time,TemperatureF,DewpointF,PressureIn,WindDirection,WindDirectionDegrees,WindSpeedMPH,WindSpeedGustMPH,Humidity,HourlyPrecipIn,Conditions,Clouds,dailyrainin,SoftwareType,DateUTC
2013-02-19 00:02:00,36.0,23.0,30.24,SW,236,3.0,13.0,60,0.00,,,0.00,,2013-02-19 05:02:00,
2013-02-19 00:13:00,36.0,23.0,30.24,SW,236,3.0,13.0,60,0.00,,,0.00,,2013-02-19 05:13:00,
2013-02-19 00:22:00,37.0,29.0,30.24,South,186,5.0,9.0,72,0.00,,,0.00,,2013-02-19 05:22:00,
2013-02-19 00:43:00,37.0,29.0,30.24,South,186,5.0,9.0,72,0.00,,,0.00,,2013-02-19 05:43:00,
2013-02-19 00:52:00,37.0,30.0,30.24,WSW,245,3.0,11.0,77,0.00,,,0.00,,2013-02-19 05:52:00,
2013-02-19 01:12:00,37.0,30.0,30.24,WSW,245,3.0,11.0,77,0.00,,,0.00,,2013-02-19 06:12:00,
2013-02-19 01:22:00,37.0,33.0,30.23,SW,233,6.0,11.0,84,0.00,,,0.00,,2013-02-19 06:22:00,
2013-02-19 01:53:00,38.0,33.0,30.22,SE,136,2.0,10.0,83,0.00,,,0.00,,2013-02-19 06:53:00,
2013-02-19 02:01:00,38.0,33.0,30.22,SE,136,2.0,10.0,83,0.00,,,0.00,,2013-02-19 07:01:00,
2013-02-19 02:12:00,38.0,33.0,30.22,SE,136,2.0,10.0,83,0.00,,,0.00,,2013-02-19 07:12:00,
2013-02-19 02:22:00,38.0,32.0,30.20,ESE,111,3.0,11.0,78,0.00,,,0.00,,2013-02-19 07:22:00,
2013-02-19 02:32:00,38.0,32.0,30.20,ESE,111,3.0,11.0,78,0.00,,,0.00,,2013-02-19 07:32:00,
2013-02-19 02:42:00,38.0,32.0,30.20,ESE,111,3.0,11.0,78,0.00,,,0.00,,2013-02-19 07:42:00,
2013-02-19 02:52:00,39.0,34.0,30.18,SW,220,8.0,14.0,82,0.00,,,0.00,,2013-02-19 07:52:00,
2013-02-19 03:02:00,39.0,34.0,30.18,SW,220,8.0,14.0,82,0.00,,,0.00,,2013-02-19 08:02:00,
2013-02-19 03:11:00,39.0,34.0,30.18,SW,220,8.0,14.0,82,0.00,,,0.00,,2013-02-19 08:11:00,
2013-02-19 03:22:00,39.0,33.0,30.17,WSW,253,3.0,15.0,79,0.00,,,0.00,,2013-02-19 08:22:00,
2013-02-19 03:32:00,39.0,33.0,30.17,WSW,253,3.0,15.0,79,0.00,,,0.00,,2013-02-19 08:32:00,
2013-02-19 03:42:00,39.0,33.0,30.17,WSW,253,3.0,15.0,79,0.00,,,0.00,,2013-02-19 08:42:00,
2013-02-19 03:52:00,39.0,33.0,30.16,South,184,10.0,15.0,79,0.00,,,0.00,,2013-02-19 08:52:00,
2013-02-19 04:02:00,39.0,33.0,30.16,South,184,10.0,15.0,79,0.00,,,0.00,,2013-02-19 09:02:00,
2013-02-19 04:11:00,39.0,33.0,30.16,South,184,10.0,15.0,79,0.00,,,0.00,,2013-02-19 09:11:00,
2013-02-19 04:22:00,40.0,34.0,30.16,SE,145,7.0,18.0,78,0.00,,,0.00,,2013-02-19 09:22:00,
2013-02-19 04:32:00,40.0,34.0,30.16,SE,145,7.0,18.0,78,0.00,,,0.00,,2013-02-19 09:32:00,
2013-02-19 04:42:00,40.0,34.0,30.16,SE,145,7.0,18.0,78,0.00,,,0.00,,2013-02-19 09:42:00,
2013-02-19 04:53:00,39.0,32.0,30.15,SSE,162,4.0,14.0,76,0.00,,,0.00,,2013-02-19 09:53:00,
2013-02-19 05:02:00,39.0,32.0,30.15,SSE,162,4.0,14.0,76,0.00,,,0.00,,2013-02-19 10:02:00,
2013-02-19 05:11:00,39.0,32.0,30.15,SSE,162,4.0,14.0,76,0.00,,,0.00,,2013-02-19 10:11:00,
2013-02-19 05:22:00,39.0,32.0,30.13,SSW,203,4.0,14.0,75,0.00,,,0.00,,2013-02-19 10:22:00,
2013-02-19 05:32:00,39.0,32.0,30.13,SSW,203,4.0,14.0,75,0.00,,,0.00,,2013-02-19 10:32:00,
2013-02-19 05:42:00,39.0,32.0,30.13,SSW,203,4.0,14.0,75,0.00,,,0.00,,2013-02-19 10:42:00,
2013-02-19 05:52:00,39.0,33.0,30.13,South,176,9.0,14.0,79,0.00,,,0.00,,2013-02-19 10:52:00,
2013-02-19 06:01:00,39.0,33.0,30.13,South,176,9.0,14.0,79,0.00,,,0.00,,2013-02-19 11:01:00,
2013-02-19 06:11:00,39.0,33.0,30.13,South,176,9.0,14.0,79,0.00,,,0.00,,2013-02-19 11:11:00,
2013-02-19 06:22:00,39.0,33.0,30.13,SE,139,2.0,11.0,79,0.00,,,0.00,,2013-02-19 11:22:00,
2013-02-19 06:32:00,39.0,33.0,30.13,SE,139,2.0,11.0,79,0.00,,,0.00,,2013-02-19 11:32:00,
2013-02-19 06:42:00,39.0,33.0,30.13,SE,139,2.0,11.0,79,0.00,,,0.00,,2013-02-19 11:42:00,
2013-02-19 06:52:00,39.0,34.0,30.10,South,174,6.0,14.0,82,0.00,,,0.00,,2013-02-19 11:52:00,
2013-02-19 07:02:00,39.0,34.0,30.10,South,174,6.0,14.0,82,0.00,,,0.00,,2013-02-19 12:02:00,
2013-02-19 07:12:00,39.0,34.0,30.10,South,174,6.0,14.0,82,0.00,,,0.00,,2013-02-19 12:12:00,
2013-02-19 07:22:00,40.0,34.0,30.11,WSW,256,8.0,13.0,80,0.00,,,0.00,,2013-02-19 12:22:00,
2013-02-19 07:32:00,40.0,34.0,30.11,WSW,256,8.0,13.0,80,0.00,,,0.00,,2013-02-19 12:32:00,
2013-02-19 07:42:00,40.0,34.0,30.11,WSW,256,8.0,13.0,80,0.00,,,0.00,,2013-02-19 12:42:00,
2013-02-19 07:52:00,41.0,34.0,30.11,North,349,4.0,19.0,76,0.00,,,0.00,,2013-02-19 12:52:00,
2013-02-19 08:02:00,41.0,34.0,30.11,North,349,4.0,19.0,76,0.00,,,0.00,,2013-02-19 13:02:00,
2013-02-19 08:11:00,41.0,34.0,30.11,North,349,4.0,19.0,76,0.00,,,0.00,,2013-02-19 13:11:00,
2013-02-19 08:22:00,42.0,35.0,30.10,SSW,205,7.0,20.0,77,0.00,,,0.00,,2013-02-19 13:22:00,
2013-02-19 08:32:00,42.0,35.0,30.10,SSW,205,7.0,20.0,77,0.00,,,0.00,,2013-02-19 13:32:00,
2013-02-19 08:42:00,42.0,35.0,30.10,SSW,205,7.0,20.0,77,0.00,,,0.00,,2013-02-19 13:42:00,
2013-02-19 08:52:00,42.0,37.0,30.09,SE,131,6.0,15.0,81,0.00,,,0.00,,2013-02-19 13:52:00,
2013-02-19 09:02:00,42.0,37.0,30.09,SE,131,6.0,15.0,81,0.00,,,0.00,,2013-02-19 14:02:00,
2013-02-19 09:12:00,42.0,37.0,30.09,SE,131,6.0,15.0,81,0.00,,,0.00,,2013-02-19 14:12:00,
2013-02-19 09:22:00,42.0,38.0,30.07,SSW,200,5.0,17.0,84,0.00,,,0.00,,2013-02-19 14:22:00,
2013-02-19 09:33:00,42.0,38.0,30.07,SSW,200,5.0,17.0,84,0.00,,,0.00,,2013-02-19 14:33:00,
2013-02-19 09:42:00,42.0,38.0,30.07,SSW,200,5.0,17.0,84,0.00,,,0.00,,2013-02-19 14:42:00,
2013-02-19 09:52:00,43.0,39.0,30.06,West,259,8.0,16.0,85,0.00,,,0.00,,2013-02-19 14:52:00,
2013-02-19 10:02:00,43.0,39.0,30.06,West,259,8.0,16.0,85,0.00,,,0.00,,2013-02-19 15:02:00,
2013-02-19 10:11:00,43.0,39.0,30.06,West,259,8.0,16.0,85,0.00,,,0.00,,2013-02-19 15:11:00,
2013-02-19 10:22:00,45.0,40.0,30.04,SE,134,7.0,15.0,83,0.00,,,0.00,,2013-02-19 15:22:00,
2013-02-19 10:32:00,45.0,40.0,30.04,SE,134,7.0,15.0,83,0.00,,,0.00,,2013-02-19 15:32:00,
2013-02-19 10:42:00,45.0,40.0,30.04,SE,134,7.0,15.0,83,0.00,,,0.00,,2013-02-19 15:42:00,
2013-02-19 10:52:00,46.0,40.0,30.04,SSE,159,5.0,15.0,80,0.00,,,0.00,,2013-02-19 15:52:00,
2013-02-19 11:02:00,46.0,40.0,30.04,SSE,159,5.0,15.0,80,0.00,,,0.00,,2013-02-19 16:02:00,
2013-02-19 11:11:00,46.0,40.0,30.04,SSE,159,5.0,15.0,80,0.00,,,0.00,,2013-02-19 16:11:00,
2013-02-19 11:22:00,46.0,41.0,30.03,SSW,212,6.0,18.0,82,0.00,,,0.00,,2013-02-19 16:22:00,
2013-02-19 11:32:00,46.0,41.0,30.03,SSW,212,6.0,18.0,82,0.00,,,0.00,,2013-02-19 16:32:00,
2013-02-19 11:42:00,46.0,41.0,30.03,SSW,212,6.0,18.0,82,0.00,,,0.00,,2013-02-19 16:42:00,
2013-02-19 11:52:00,45.0,40.0,30.01,South,188,6.0,16.0,84,0.00,,,0.00,,2013-02-19 16:52:00,
2013-02-19 12:01:00,45.0,40.0,30.01,South,188,6.0,16.0,84,0.00,,,0.00,,2013-02-19 17:01:00,
2013-02-19 12:11:00,45.0,40.0,30.01,South,188,6.0,16.0,84,0.00,,,0.00,,2013-02-19 17:11:00,
2013-02-19 12:21:00,45.0,41.0,29.98,WSW,250,7.0,14.0,85,0.00,,,0.00,,2013-02-19 17:21:00,
2013-02-19 12:32:00,45.0,41.0,29.98,WSW,250,7.0,14.0,85,0.00,,,0.00,,2013-02-19 17:32:00,
2013-02-19 12:42:00,45.0,41.0,29.98,WSW,250,7.0,14.0,85,0.00,,,0.00,,2013-02-19 17:42:00,
2013-02-19 12:52:00,46.0,42.0,29.96,ESE,104,6.0,15.0,86,0.00,,,0.00,,2013-02-19 17:52:00,
2013-02-19 13:02:00,46.0,42.0,29.96,ESE,104,6.0,15.0,86,0.00,,,0.00,,2013-02-19 18:02:00,
2013-02-19 13:11:00,46.0,42.0,29.96,ESE,104,6.0,15.0,86,0.00,,,0.00,,2013-02-19 18:11:00,
2013-02-19 13:21:00,44.0,41.0,29.93,SE,127,4.0,13.0,89,0.01,,,0.01,,2013-02-19 18:21:00,
2013-02-19 13:32:00,44.0,41.0,29.93,SE,127,4.0,13.0,89,0.01,,,0.01,,2013-02-19 18:32:00,
2013-02-19 13:42:00,44.0,41.0,29.93,SE,127,4.0,13.0,89,0.01,,,0.01,,2013-02-19 18:42:00,
2013-02-19 13:52:00,45.0,42.0,29.90,South,184,5.0,12.0,89,0.02,,,0.02,,2013-02-19 18:52:00,
2013-02-19 14:01:00,45.0,42.0,29.90,South,184,5.0,12.0,89,0.02,,,0.02,,2013-02-19 19:01:00,
2013-02-19 14:11:00,45.0,42.0,29.90,South,184,5.0,12.0,89,0.02,,,0.02,,2013-02-19 19:11:00,
2013-02-19 14:21:00,45.0,42.0,29.88,SSE,157,3.0,14.0,89,0.01,,,0.02,,2013-02-19 19:21:00,
2013-02-19 14:32:00,45.0,42.0,29.88,SSE,157,3.0,14.0,89,0.01,,,0.02,,2013-02-19 19:32:00,
2013-02-19 14:42:00,45.0,42.0,29.88,SSE,157,3.0,14.0,89,0.01,,,0.02,,2013-02-19 19:42:00,
2013-02-19 14:52:00,47.0,44.0,29.86,South,190,2.0,15.0,88,0.00,,,0.02,,2013-02-19 19:52:00,
2013-02-19 15:02:00,47.0,44.0,29.86,South,190,2.0,15.0,88,0.00,,,0.02,,2013-02-19 20:02:00,
2013-02-19 15:12:00,47.0,44.0,29.86,South,190,2.0,15.0,88,0.00,,,0.02,,2013-02-19 20:12:00,
2013-02-19 15:22:00,47.0,44.0,29.85,SE,131,4.0,14.0,88,0.00,,,0.02,,2013-02-19 20:22:00,
2013-02-19 15:32:00,47.0,44.0,29.85,SE,131,4.0,14.0,88,0.00,,,0.02,,2013-02-19 20:32:00,
2013-02-19 15:42:00,47.0,44.0,29.85,SE,131,4.0,14.0,88,0.00,,,0.02,,2013-02-19 20:42:00,
2013-02-19 15:52:00,46.0,43.0,29.83,South,173,6.0,13.0,90,0.01,,,0.03,,2013-02-19 20:52:00,
2013-02-19 16:02:00,46.0,43.0,29.83,South,173,6.0,13.0,90,0.01,,,0.03,,2013-02-19 21:02:00,
2013-02-19 16:11:00,46.0,43.0,29.83,South,173,6.0,13.0,90,0.01,,,0.03,,2013-02-19 21:11:00,
2013-02-19 16:21:00,44.0,42.0,29.80,SSW,208,3.0,11.0,92,0.03,,,0.05,,2013-02-19 21:21:00,
2013-02-19 16:32:00,44.0,42.0,29.80,SSW,208,3.0,11.0,92,0.03,,,0.05,,2013-02-19 21:32:00,
2013-02-19 16:42:00,44.0,42.0,29.80,SSW,208,3.0,11.0,92,0.03,,,0.05,,2013-02-19 21:42:00,
2013-02-19 16:52:00,44.0,42.0,29.78,SE,142,4.0,12.0,94,0.03,,,0.06,,2013-02-19 21:52:00,
2013-02-19 17:02:00,44.0,42.0,29.78,SE,142,4.0,12.0,94,0.03,,,0.06,,2013-02-19 22:02:00,
2013-02-19 17:11:00,44.0,42.0,29.78,SE,142,4.0,12.0,94,0.03,,,0.06,,2013-02-19 22:11:00,
2013-02-19 17:22:00,43.0,42.0,29.76,SSW,203,6.0,12.0,95,0.01,,,0.06,,2013-02-19 22:22:00,
2013-02-19 17:32:00,43.0,42.0,29.76,SSW,203,6.0,12.0,95,0.01,,,0.06,,2013-02-19 22:32:00,
2013-02-19 17:42:00,43.0,42.0,29.76,SSW,203,6.0,12.0,95,0.01,,,0.06,,2013-02-19 22:42:00,
2013-02-19 17:52:00,45.0,44.0,29.75,SW,229,7.0,11.0,95,0.02,,,0.08,,2013-02-19 22:52:00,
2013-02-19 18:01:00,45.0,44.0,29.75,SW,229,7.0,11.0,95,0.02,,,0.08,,2013-02-19 23:01:00,
2013-02-19 18:11:00,45.0,44.0,29.75,SW,229,7.0,11.0,95,0.02,,,0.08,,2013-02-19 23:11:00,
2013-02-19 18:21:00,45.0,44.0,29.75,SW,236,3.0,13.0,95,0.03,,,0.09,,2013-02-19 23:21:00,
2013-02-19 18:32:00,45.0,44.0,29.75,SW,236,3.0,13.0,95,0.03,,,0.09,,2013-02-19 23:32:00,
2013-02-19 18:42:00,45.0,44.0,29.75,SW,236,3.0,13.0,95,0.03,,,0.09,,2013-02-19 23:42:00,
2013-02-19 18:52:00,46.0,45.0,29.73,SW,224,9.0,15.0,96,0.01,,,0.09,,2013-02-19 23:52:00,
2013-02-19 19:01:00,46.0,45.0,29.73,SW,224,9.0,15.0,96,0.01,,,0.09,,2013-02-20 00:01:00,
2013-02-19 19:11:00,46.0,45.0,29.73,SW,224,9.0,15.0,96,0.01,,,0.09,,2013-02-20 00:11:00,
2013-02-19 19:22:00,46.0,45.0,29.72,WSW,242,4.0,13.0,96,0.00,,,0.09,,2013-02-20 00:22:00,
2013-02-19 19:32:00,46.0,45.0,29.72,WSW,242,4.0,13.0,96,0.00,,,0.09,,2013-02-20 00:32:00,
2013-02-19 19:42:00,46.0,45.0,29.72,WSW,242,4.0,13.0,96,0.00,,,0.09,,2013-02-20 00:42:00,
2013-02-19 19:52:00,47.0,46.0,29.73,WSW,240,7.0,11.0,97,0.00,,,0.09,,2013-02-20 00:52:00,
2013-02-19 20:02:00,47.0,46.0,29.73,WSW,240,7.0,11.0,97,0.00,,,0.09,,2013-02-20 01:02:00,
2013-02-19 20:11:00,47.0,46.0,29.73,WSW,240,7.0,11.0,97,0.00,,,0.09,,2013-02-20 01:11:00,
2013-02-19 20:22:00,49.0,47.0,29.74,WNW,295,7.0,20.0,93,0.00,,,0.09,,2013-02-20 01:22:00,
2013-02-19 20:32:00,49.0,47.0,29.74,WNW,295,7.0,20.0,93,0.00,,,0.09,,2013-02-20 01:32:00,
2013-02-19 20:42:00,49.0,47.0,29.74,WNW,295,7.0,20.0,93,0.00,,,0.09,,2013-02-20 01:42:00,
2013-02-19 20:52:00,46.0,44.0,29.75,West,271,15.0,24.0,91,0.00,,,0.09,,2013-02-20 01:52:00,
2013-02-19 21:02:00,46.0,44.0,29.75,West,271,15.0,24.0,91,0.00,,,0.09,,2013-02-20 02:02:00,
2013-02-19 21:11:00,46.0,44.0,29.75,West,271,15.0,24.0,91,0.00,,,0.09,,2013-02-20 02:11:00,
2013-02-19 21:22:00,46.0,43.0,29.76,WSW,252,14.0,19.0,90,0.00,,,0.09,,2013-02-20 02:22:00,
2013-02-19 21:32:00,46.0,43.0,29.76,WSW,252,14.0,19.0,90,0.00,,,0.09,,2013-02-20 02:32:00,
2013-02-19 21:42:00,46.0,43.0,29.76,WSW,252,14.0,19.0,90,0.00,,,0.09,,2013-02-20 02:42:00,
2013-02-19 21:52:00,45.0,42.0,29.78,WNW,283,10.0,18.0,90,0.00,,,0.09,,2013-02-20 02:52:00,
2013-02-19 22:02:00,45.0,42.0,29.78,WNW,283,10.0,18.0,90,0.00,,,0.09,,2013-02-20 03:02:00,
2013-02-19 22:12:00,45.0,42.0,29.78,WNW,283,10.0,18.0,90,0.00,,,0.09,,2013-02-20 03:12:00,
2013-02-19 22:22:00,43.0,41.0,29.78,NNW,328,4.0,16.0,91,0.00,,,0.09,,2013-02-20 03:22:00,
2013-02-19 22:32:00,43.0,41.0,29.78,NNW,328,4.0,16.0,91,0.00,,,0.09,,2013-02-20 03:32:00,
2013-02-19 22:42:00,43.0,41.0,29.78,NNW,328,4.0,16.0,91,0.00,,,0.09,,2013-02-20 03:42:00,
2013-02-19 22:52:00,43.0,40.0,29.78,WNW,285,5.0,16.0,88,0.00,,,0.09,,2013-02-20 03:52:00,
2013-02-19 23:01:00,43.0,40.0,29.78,WNW,285,5.0,16.0,88,0.00,,,0.09,,2013-02-20 04:01:00,
2013-02-19 23:11:00,43.0,40.0,29.78,WNW,285,5.0,16.0,88,0.00,,,0.09,,2013-02-20 04:11:00,
2013-02-19 23:21:00,43.0,38.0,29.80,NW,309,8.0,21.0,81,0.00,,,0.09,,2013-02-20 04:21:00,
2013-02-19 23:32:00,43.0,38.0,29.80,NW,309,8.0,21.0,81,0.00,,,0.09,,2013-02-20 04:32:00,
2013-02-19 23:42:00,43.0,38.0,29.80,NW,309,8.0,21.0,81,0.00,,,0.09,,2013-02-20 04:42:00,
2013-02-19 23:52:00,42.0,35.0,29.80,West,270,10.0,19.0,75,0.00,,,0.09,,2013-02-20 04:52:00,